LNFMA ENNO-ENHD

Flight info

Callsign LNFMA
Flight time 0h 59m
Altitude 22000
Route ATJEF DCT IPMOD Z280 ULVOS
Aircraft B60T/L-SDFGRY/C

Departure

Time 2026-05-04 11:22
Airport Notodden Airport (ENNO)

Arrival

Time 2026-05-04 12:21
Airport Haugesund Airport, Karmøy (ENHD)
Time Latitude Longitude Altitude Speed Heading
2026-05-04 10:28 59.56537 9.21794 69 ft 0 kts 173°
2026-05-04 11:05 59.56469 9.21699 69 ft 0 kts
2026-05-04 11:16 59.56400 9.21826 69 ft 0 kts 218°
2026-05-04 11:19 59.56352 9.21767 66 ft 5 kts 175°
2026-05-04 11:19 59.56305 9.21872 66 ft 15 kts 126°
2026-05-04 11:19 59.56229 9.22081 68 ft 21 kts 125°
2026-05-04 11:19 59.56140 9.22319 70 ft 21 kts 126°
2026-05-04 11:20 59.56047 9.22528 66 ft 14 kts 136°
2026-05-04 11:20 59.56042 9.22575 70 ft 3 kts 328°
2026-05-04 11:20 59.56114 9.22376 70 ft 51 kts 307°
2026-05-04 11:20 59.56471 9.21445 217 ft 104 kts 307°
2026-05-04 11:22 59.60005 9.10678 3705 ft 130 kts 283°
2026-05-04 11:22 59.60278 9.09039 4110 ft 123 kts 293°
2026-05-04 11:23 59.60597 9.07814 4365 ft 124 kts 299°
2026-05-04 11:24 59.63608 8.99265 6033 ft 128 kts 285°
2026-05-04 11:25 59.63826 8.97496 6108 ft 135 kts 283°
2026-05-04 11:25 59.64009 8.95735 6434 ft 131 kts 283°
2026-05-04 11:25 59.64557 8.94228 6432 ft 150 kts 326°
2026-05-04 11:26 59.66794 8.94883 6463 ft 171 kts
2026-05-04 11:27 59.69299 8.87803 7887 ft 125 kts 283°
2026-05-04 11:28 59.69458 8.86192 8174 ft 126 kts 281°
2026-05-04 11:28 59.69607 8.84471 8434 ft 128 kts 281°
2026-05-04 11:28 59.69750 8.82736 8721 ft 127 kts 280°
2026-05-04 11:29 59.69889 8.81014 9047 ft 126 kts 280°
2026-05-04 11:29 59.70025 8.79324 9382 ft 125 kts 280°
2026-05-04 11:29 59.70162 8.77625 9696 ft 125 kts 280°
2026-05-04 11:29 59.70300 8.75927 9957 ft 124 kts 280°
2026-05-04 11:31 59.71230 8.64334 11946 ft 120 kts 278°
2026-05-04 11:33 59.72115 8.53157 13835 ft 113 kts 277°
2026-05-04 11:33 59.72234 8.51645 14103 ft 110 kts 277°
2026-05-04 11:33 59.72354 8.50129 14338 ft 114 kts 277°
2026-05-04 11:34 59.72477 8.48555 14655 ft 117 kts 276°
2026-05-04 11:34 59.72603 8.46951 14980 ft 118 kts 276°
2026-05-04 11:34 59.72729 8.45333 15301 ft 119 kts 275°
2026-05-04 11:34 59.72857 8.43705 15625 ft 119 kts 275°
2026-05-04 11:35 59.72985 8.42078 15948 ft 119 kts 275°
2026-05-04 11:35 59.73110 8.40455 16262 ft 119 kts 275°
2026-05-04 11:35 59.73238 8.38836 16642 ft 118 kts 274°
2026-05-04 11:35 59.73363 8.37224 17044 ft 118 kts 274°
2026-05-04 11:36 59.73486 8.35616 17372 ft 117 kts 273°
2026-05-04 11:36 59.73609 8.34022 17720 ft 117 kts 273°
2026-05-04 11:36 59.73733 8.32435 18062 ft 116 kts 272°
2026-05-04 11:36 59.73855 8.30850 18258 ft 117 kts 273°
2026-05-04 11:37 59.73917 8.29264 18486 ft 114 kts 260°
2026-05-04 11:37 59.73741 8.27734 18819 ft 114 kts 260°
2026-05-04 11:37 59.73577 8.26198 19131 ft 114 kts 260°
2026-05-04 11:37 59.73412 8.24661 19409 ft 114 kts 260°
2026-05-04 11:38 59.73247 8.23122 19659 ft 114 kts 260°
2026-05-04 11:38 59.73080 8.21582 19920 ft 114 kts 260°
2026-05-04 11:38 59.72914 8.20041 20193 ft 114 kts 260°
2026-05-04 11:38 59.72747 8.18496 20466 ft 115 kts 260°
2026-05-04 11:39 59.72578 8.16951 20723 ft 115 kts 261°
2026-05-04 11:39 59.72414 8.15424 21015 ft 115 kts 261°
2026-05-04 11:40 59.71312 8.05249 21808 ft 144 kts 261°
2026-05-04 11:41 59.71097 8.03289 21805 ft 148 kts 261°
2026-05-04 11:41 59.70877 8.01273 21808 ft 151 kts 261°
2026-05-04 11:41 59.70653 7.99231 21804 ft 152 kts 261°
2026-05-04 11:41 59.70427 7.97172 21807 ft 153 kts 261°
2026-05-04 11:42 59.70200 7.95099 21806 ft 154 kts 261°
2026-05-04 11:42 59.69971 7.93020 21804 ft 155 kts 261°
2026-05-04 11:42 59.69740 7.90930 21806 ft 156 kts 261°
2026-05-04 11:42 59.69509 7.88837 21805 ft 155 kts 261°
2026-05-04 11:43 59.69329 7.86749 21802 ft 154 kts 269°
2026-05-04 11:43 59.69402 7.84645 21816 ft 153 kts 274°
2026-05-04 11:43 59.69508 7.82546 21814 ft 154 kts 274°
2026-05-04 11:43 59.69360 7.80460 21809 ft 156 kts 255°
2026-05-04 11:44 59.69068 7.79169 21815 ft 155 kts 253°
2026-05-04 11:44 59.68583 7.77236 21809 ft 158 kts 252°
2026-05-04 11:44 59.67919 7.74687 21807 ft 157 kts 252°
2026-05-04 11:44 59.67419 7.72765 21807 ft 158 kts 252°
2026-05-04 11:45 59.66916 7.70837 21811 ft 158 kts 252°
2026-05-04 11:45 59.66447 7.68873 21811 ft 155 kts 262°
2026-05-04 11:45 59.66439 7.67474 21814 ft 151 kts 276°
2026-05-04 11:45 59.66584 7.64758 21812 ft 151 kts 272°
2026-05-04 11:46 59.66560 7.63361 21815 ft 150 kts 267°
2026-05-04 11:46 59.66408 7.61319 21795 ft 150 kts 264°
2026-05-04 11:46 59.66199 7.59269 21804 ft 154 kts 262°
2026-05-04 11:46 59.65968 7.57183 21805 ft 156 kts 262°
2026-05-04 11:47 59.65730 7.55078 21810 ft 157 kts 262°
2026-05-04 11:47 59.65491 7.52967 21810 ft 157 kts 262°
2026-05-04 11:47 59.65251 7.50858 21810 ft 157 kts 262°
2026-05-04 11:47 59.65011 7.48749 21815 ft 158 kts 262°
2026-05-04 11:48 59.64769 7.46631 21813 ft 158 kts 262°
2026-05-04 11:48 59.64528 7.44508 21812 ft 158 kts 263°
2026-05-04 11:48 59.64298 7.42437 21813 ft 156 kts 262°
2026-05-04 11:48 59.64061 7.40340 21808 ft 157 kts 262°
2026-05-04 11:49 59.63819 7.38237 21811 ft 157 kts 262°
2026-05-04 11:49 59.63578 7.36135 21810 ft 157 kts 262°
2026-05-04 11:49 59.63336 7.34043 21809 ft 156 kts 262°
2026-05-04 11:49 59.63094 7.31939 21821 ft 158 kts 262°
2026-05-04 11:50 59.62849 7.29826 21822 ft 157 kts 262°
2026-05-04 11:50 59.62607 7.27725 21826 ft 157 kts 262°
2026-05-04 11:50 59.62362 7.25618 21824 ft 157 kts 262°
2026-05-04 11:50 59.62118 7.23507 21830 ft 158 kts 262°
2026-05-04 11:51 59.61872 7.21398 21830 ft 157 kts 262°
2026-05-04 11:51 59.61628 7.19301 21830 ft 157 kts 262°
2026-05-04 11:51 59.61389 7.17201 21828 ft 156 kts 264°
2026-05-04 11:51 59.61145 7.15123 21830 ft 155 kts 263°
2026-05-04 11:52 59.60901 7.13067 21829 ft 152 kts 263°
2026-05-04 11:52 59.60661 7.11032 21826 ft 152 kts 263°
2026-05-04 11:52 59.60423 7.08993 21828 ft 153 kts 263°
2026-05-04 11:52 59.60183 7.06950 21829 ft 152 kts 263°
2026-05-04 11:53 59.59944 7.04916 21823 ft 152 kts 263°
2026-05-04 11:53 59.59706 7.02888 21832 ft 152 kts 263°
2026-05-04 11:53 59.59465 7.00851 21832 ft 153 kts 263°
2026-05-04 11:53 59.59223 6.98818 21831 ft 152 kts 263°
2026-05-04 11:55 59.57520 6.84489 21832 ft 153 kts 263°
2026-05-04 11:55 59.57277 6.82451 21826 ft 152 kts 263°
2026-05-04 11:56 59.57035 6.80419 21830 ft 152 kts 264°
2026-05-04 11:56 59.56795 6.78423 21834 ft 152 kts 263°
2026-05-04 11:56 59.56548 6.76358 21835 ft 153 kts 263°
2026-05-04 11:56 59.56303 6.74327 21837 ft 153 kts 263°
2026-05-04 11:57 59.56061 6.72334 21829 ft 143 kts 263°
2026-05-04 11:57 59.55837 6.70516 21802 ft 131 kts 264°
2026-05-04 11:57 59.55628 6.68727 21485 ft 140 kts 263°
2026-05-04 11:57 59.55398 6.66786 20977 ft 150 kts 263°
2026-05-04 11:58 59.55150 6.64770 20458 ft 152 kts 262°
2026-05-04 11:58 59.54907 6.62746 19947 ft 152 kts 262°
2026-05-04 11:58 59.54659 6.60719 19485 ft 147 kts 261°
2026-05-04 11:58 59.54425 6.58825 19026 ft 140 kts 261°
2026-05-04 11:59 59.54199 6.56971 18499 ft 138 kts 261°
2026-05-04 11:59 59.53980 6.55155 18037 ft 135 kts 260°
2026-05-04 11:59 59.53761 6.53369 17493 ft 133 kts 260°
2026-05-04 11:59 59.53544 6.51592 16995 ft 133 kts 261°
2026-05-04 12:00 59.53327 6.49825 16521 ft 133 kts 260°
2026-05-04 12:00 59.53109 6.48050 16073 ft 133 kts 261°
2026-05-04 12:00 59.52892 6.46262 15597 ft 134 kts 261°
2026-05-04 12:00 59.52673 6.44466 15177 ft 135 kts 261°
2026-05-04 12:01 59.52449 6.42661 14765 ft 136 kts 261°
2026-05-04 12:01 59.52226 6.40840 14392 ft 137 kts 262°
2026-05-04 12:02 59.48638 6.31334 11709 ft 147 kts 239°
2026-05-04 12:03 59.47977 6.29795 11336 ft 147 kts 239°
2026-05-04 12:03 59.47321 6.28257 10947 ft 147 kts 239°
2026-05-04 12:03 59.46667 6.26723 10562 ft 147 kts 238°
2026-05-04 12:03 59.46009 6.25187 10236 ft 146 kts 237°
2026-05-04 12:04 59.45387 6.23746 9874 ft 131 kts 238°
2026-05-04 12:04 59.44853 6.22515 9827 ft 110 kts 240°
2026-05-04 12:04 59.44306 6.21197 9863 ft 140 kts 239°
2026-05-04 12:04 59.43628 6.19580 9900 ft 165 kts 238°
2026-05-04 12:05 59.42851 6.17783 9858 ft 181 kts 237°
2026-05-04 12:05 59.42061 6.15975 9539 ft 162 kts 237°
2026-05-04 12:05 59.41367 6.14387 9165 ft 146 kts 238°
2026-05-04 12:05 59.40752 6.12858 8757 ft 139 kts 246°
2026-05-04 12:06 59.40310 6.11213 8298 ft 135 kts 248°
2026-05-04 12:06 59.39867 6.09608 7943 ft 132 kts 247°
2026-05-04 12:06 59.39429 6.08032 7606 ft 131 kts 247°
2026-05-04 12:06 59.38993 6.06460 7262 ft 131 kts 247°
2026-05-04 12:07 59.38559 6.04892 6908 ft 131 kts 246°
2026-05-04 12:07 59.38121 6.03324 6580 ft 131 kts 246°
2026-05-04 12:07 59.37683 6.01753 6249 ft 131 kts 246°
2026-05-04 12:07 59.37246 6.00183 5893 ft 131 kts 246°
2026-05-04 12:08 59.36808 5.98607 5548 ft 132 kts 246°
2026-05-04 12:08 59.36370 5.97029 5222 ft 132 kts 245°
2026-05-04 12:08 59.35923 5.95450 4969 ft 130 kts 245°
2026-05-04 12:08 59.35490 5.93899 4971 ft 133 kts 246°
2026-05-04 12:09 59.35035 5.92267 4991 ft 139 kts 245°
2026-05-04 12:09 59.34566 5.90587 4987 ft 142 kts 245°
2026-05-04 12:09 59.34089 5.88886 4988 ft 143 kts 245°
2026-05-04 12:09 59.33611 5.87179 4987 ft 143 kts 245°
2026-05-04 12:10 59.33132 5.85469 4987 ft 143 kts 245°
2026-05-04 12:10 59.32659 5.83786 4987 ft 143 kts 245°
2026-05-04 12:10 59.32179 5.82081 4940 ft 145 kts 245°
2026-05-04 12:10 59.31678 5.80292 4703 ft 153 kts 245°
2026-05-04 12:11 59.31161 5.78453 4495 ft 155 kts 245°
2026-05-04 12:11 59.30638 5.76595 4259 ft 156 kts 245°
2026-05-04 12:11 59.30113 5.74733 4024 ft 157 kts 244°
2026-05-04 12:11 59.29597 5.72909 3979 ft 149 kts 244°
2026-05-04 12:12 59.29103 5.71160 3971 ft 145 kts 244°
2026-05-04 12:12 59.28617 5.69441 3972 ft 143 kts 245°
2026-05-04 12:12 59.28138 5.67746 3968 ft 142 kts 245°
2026-05-04 12:12 59.27662 5.66056 3978 ft 142 kts 245°
2026-05-04 12:13 59.27187 5.64383 3982 ft 140 kts 244°
2026-05-04 12:14 59.22798 5.54271 3985 ft 140 kts 230°
2026-05-04 12:15 59.22103 5.52936 3983 ft 140 kts 230°
2026-05-04 12:15 59.21414 5.51602 3981 ft 139 kts 232°
2026-05-04 12:15 59.20991 5.49985 3987 ft 135 kts 261°
2026-05-04 12:15 59.21060 5.48115 3774 ft 145 kts 288°
2026-05-04 12:16 59.21676 5.46516 3567 ft 155 kts 321°
2026-05-04 12:16 59.22484 5.45236 3475 ft 147 kts 309°
2026-05-04 12:16 59.23206 5.43777 3239 ft 152 kts 308°
2026-05-04 12:16 59.23922 5.42236 3002 ft 152 kts 307°
2026-05-04 12:17 59.24608 5.40761 2988 ft 145 kts 307°
2026-05-04 12:17 59.25288 5.39326 2921 ft 139 kts 310°
2026-05-04 12:17 59.25938 5.38065 2694 ft 128 kts 308°
2026-05-04 12:17 59.26545 5.36828 2389 ft 125 kts 308°
2026-05-04 12:18 59.27152 5.35605 2079 ft 126 kts 308°
2026-05-04 12:18 59.27763 5.34381 1840 ft 124 kts 308°
2026-05-04 12:18 59.28356 5.33199 1670 ft 120 kts 308°
2026-05-04 12:18 59.28930 5.32052 1497 ft 116 kts 308°
2026-05-04 12:19 59.29488 5.30935 1336 ft 114 kts 308°
2026-05-04 12:19 59.30040 5.29831 1180 ft 114 kts 308°
2026-05-04 12:19 59.30591 5.28729 1032 ft 112 kts 309°
2026-05-04 12:19 59.31142 5.27642 890 ft 117 kts 307°
2026-05-04 12:20 59.31713 5.26501 701 ft 114 kts 306°
2026-05-04 12:20 59.32264 5.25395 566 ft 118 kts 309°
2026-05-04 12:20 59.32815 5.24302 417 ft 107 kts 308°
2026-05-04 12:20 59.33306 5.23282 287 ft 106 kts 304°
2026-05-04 12:21 59.33826 5.22251 103 ft 105 kts 305°
2026-05-04 12:21 59.34278 5.21341 81 ft 77 kts 309°
2026-05-04 12:21 59.34522 5.20849 74 ft 30 kts 315°
2026-05-04 12:21 59.34606 5.20669 74 ft 9 kts 288°
2026-05-04 12:22 59.34642 5.20647 74 ft 9 kts 98°
2026-05-04 12:22 59.34595 5.20723 73 ft 13 kts 142°
2026-05-04 12:22 59.34504 5.20880 75 ft 22 kts 134°
2026-05-04 12:22 59.34433 5.21030 77 ft 11 kts 134°
2026-05-04 12:23 59.34358 5.21172 79 ft 13 kts 134°
2026-05-04 12:23 59.34340 5.21293 81 ft 11 kts 52°
2026-05-04 12:23 59.34394 5.21397 84 ft 9 kts 43°
2026-05-04 12:23 59.34403 5.21414 84 ft 0 kts 45°
2026-05-04 12:24 59.34427 5.21440 89 ft 11 kts
2026-05-04 12:24 59.34504 5.21399 82 ft 13 kts 356°
2026-05-04 12:25 59.34527 5.21397 82 ft 0 kts